Location: Arroyo de Valdeoliva
(40.1604°N, 4.9878°W)
Time: 11:57:31
(UTC+00:00)

Tiangong - Pass Details

Date: 15 February 2026
Orbit: 381 x 391 km, 41.5° (Epoch: 8 March)

Event Time Altitude Azimuth Distance (km) Brightness Sun altitude
Rises 20:02:49 0° 280° (W) 2,251 3.1 -24.9°
Reaches altitude 10° 20:04:54 10° 282° (WNW) 1,396 1.7 -25.3°
Enters shadow 20:06:19 24° 285° (WNW) 836 0.2 -25.6°
